Location: Unspecified
(0.0000°N, 0.0000°E)
Time: 07:18:50
(UTC+00:00)

PCSat - Visible Passes

Search period start: 17 February 2020 00:00
Search period end: 27 February 2020 00:00
Orbit: 785 x 794 km, 67.1° (Epoch: 16 February)

Date Brightness Start Highest point End Pass type
(mag) Time Alt. Az. Time Alt. Az. Time Alt. Az.
17 Feb 10.5 20:17:23 10° SSW 20:20:41 39° SSW 20:20:41 39° SSW visible
18 Feb 9.7 19:46:35 10° S 19:51:36 53° ESE 19:51:36 53° ESE visible
19 Feb 10.2 19:16:02 10° S 19:20:54 34° ESE 19:22:39 28° ENE visible
19 Feb 12.1 21:00:56 10° WSW 21:03:27 15° WNW 21:03:27 15° WNW visible
20 Feb 10.8 18:45:49 10° SSE 18:49:56 22° ESE 18:53:51 11° ENE visible
20 Feb 11.5 20:28:46 10° WSW 20:33:03 24° WNW 20:34:40 21° NW visible
21 Feb 10.9 19:57:09 10° SW 20:02:06 37° WNW 20:06:04 15° N visible
22 Feb 10.1 19:25:52 10° SSW 19:31:09 58° WNW 19:36:27 10° N visible
23 Feb 9.6 18:54:48 10° SSW 19:00:13 89° ESE 19:05:37 10° NNE visible
25 Feb 12.6 05:20:32 10° NE 05:22:12 11° ENE 05:23:50 10° E visible
25 Feb 12.3 19:38:34 10° WSW 19:41:27 15° WNW 19:44:19 10° NW visible
26 Feb 12.0 19:06:19 10° WSW 19:10:28 23° WNW 19:14:39 10° NNW visible
